Find Starlink 32492

NORAD ID: 62050 Int'l Des: 2024-216 Owner: SPXS Country: US Constellation: starlink operational
LEOCIRCULAR

当前视图

正在加载3D地球...

About Starlink 32492

Starlink 32492 (NORAD 62050) is a starlink constellation satellite (v2 mini) launched Nov 21, 2024 by SPXS of US. It operates in LEO, CIRCULAR orbit with a mass of 730.00 kg.

关于 Starlink 32492

正在加载描述...

即将过境

Passes for default location (London). Set your location on the main map for personalized predictions.

高度历史

Loading altitude history...

两行轨道根数

1 62050U 24216U 26173.29759874 .00017828 00000-0 65565-3 0 9994
2 62050 42.9994 32.5098 0002254 276.9207 83.1389 15.27587724 89798
Epoch: Jun 22, 2026 • Age: 30 hours

当前状态

高度 486.5 km
速度 7.63 km/s
星下点 38.39°N, 34.1°E
发射日期 Nov 21, 2024
运行时间 1.5 years
类型 internet

技术详情

分类 Payload
质量 730.00 kg
干质量 700.00 kg
总质量 730.00 kg
长度 0.30 m
直径 4.10 m
跨度 29.00 m
形状 Box + pan
制造商 SPXS
平台类型 Starlink V2M
阶段状态 In Orbit
所有者/国家 SPXS/US

Most Searched